Location: Oklahoma City
(35.4680°N, 97.5160°W)
Time: 01:20:10
(UTC-06:00)

ISS - Visible Passes

Search period start: 02 March 2015 00:00
Search period end: 12 March 2015 01:00
Orbit: 397 x 407 km, 51.6° (Epoch: 02 March)

Date Brightness Start Highest point End Pass type
(mag) Time Alt. Az. Time Alt. Az. Time Alt. Az.
07 Mar -0.4 06:10:32 10° S 06:12:42 17° SE 06:14:55 10° E visible
09 Mar -2.3 06:59:31 10° SSW 07:02:37 45° SE 07:05:43 10° ENE visible
10 Mar -1.0 06:08:15 16° SSE 06:09:32 21° SE 06:12:04 10° E visible
11 Mar -3.3 06:50:25 19° WSW 06:52:33 63° NW 06:55:45 10° NE visible
